TimeEST,TemperatureF,Dew PointF,Humidity,Sea Level PressureIn,VisibilityMPH,Wind Direction,Wind SpeedMPH,Gust SpeedMPH,PrecipitationIn,Events,Conditions,WindDirDegrees,DateUTC
12:15 AM,39.2,39.2,100,29.52,0.5,North,3.5,-,N/A,,Overcast,360,2012-12-18 05:15:00
12:35 AM,39.2,39.2,100,29.51,0.5,Calm,Calm,-,N/A,,Overcast,0,2012-12-18 05:35:00
12:55 AM,39.2,39.2,100,29.51,1.2,Calm,Calm,-,N/A,,Overcast,0,2012-12-18 05:55:00
1:15 AM,41.0,39.2,93,29.50,5.0,Calm,Calm,-,N/A,,Overcast,0,2012-12-18 06:15:00
1:35 AM,41.0,39.2,93,29.50,5.0,SE,3.5,-,N/A,,Overcast,140,2012-12-18 06:35:00
1:55 AM,41.0,39.2,93,29.50,3.0,Calm,Calm,-,N/A,,Overcast,0,2012-12-18 06:55:00
2:15 AM,41.0,39.2,93,29.50,1.2,Calm,Calm,-,N/A,,Overcast,0,2012-12-18 07:15:00
2:35 AM,42.8,39.2,87,29.49,1.2,Calm,Calm,-,N/A,,Overcast,0,2012-12-18 07:35:00
2:55 AM,39.2,39.2,100,29.49,0.5,Calm,Calm,-,N/A,,Overcast,0,2012-12-18 07:55:00
3:15 AM,41.0,39.2,93,29.49,0.5,Calm,Calm,-,N/A,,Overcast,0,2012-12-18 08:15:00
3:35 AM,41.0,39.2,93,29.49,0.5,SW,3.5,-,0.01,,Overcast,220,2012-12-18 08:35:00
3:55 AM,39.2,39.2,100,29.48,0.8,WSW,3.5,-,0.02,,Overcast,240,2012-12-18 08:55:00
4:15 AM,39.2,39.2,100,29.48,0.8,West,3.5,-,0.02,,Overcast,260,2012-12-18 09:15:00
4:35 AM,41.0,39.2,93,29.48,6.0,Calm,Calm,-,0.04,,Overcast,0,2012-12-18 09:35:00
4:55 AM,39.2,37.4,93,29.48,1.2,North,5.8,-,0.06,,Overcast,350,2012-12-18 09:55:00
5:15 AM,39.2,37.4,93,29.48,7.0,North,9.2,-,0.02,,Overcast,350,2012-12-18 10:15:00
5:35 AM,39.2,37.4,93,29.48,8.0,NNW,8.1,-,0.04,,Overcast,340,2012-12-18 10:35:00
6:15 AM,39.2,37.4,93,29.48,10.0,NNW,9.2,-,0.01,,Overcast,340,2012-12-18 11:15:00
6:35 AM,39.2,37.4,93,29.49,8.0,North,8.1,-,0.02,,Overcast,350,2012-12-18 11:35:00
7:15 AM,39.2,37.4,93,29.50,10.0,NNW,8.1,-,0.02,,Overcast,330,2012-12-18 12:15:00
7:35 AM,37.4,37.4,100,29.50,10.0,NNW,8.1,-,0.05,,Overcast,340,2012-12-18 12:35:00
7:55 AM,37.4,35.6,93,29.51,10.0,NW,8.1,-,0.07,,Overcast,320,2012-12-18 12:55:00
8:15 AM,37.4,35.6,93,29.52,10.0,NW,5.8,-,0.03,,Overcast,320,2012-12-18 13:15:00
8:35 AM,37.4,35.6,93,29.52,10.0,NW,10.4,17.3,0.04,,Overcast,310,2012-12-18 13:35:00
8:55 AM,37.4,35.6,93,29.54,8.0,WNW,11.5,16.1,0.06,,Overcast,300,2012-12-18 13:55:00
9:15 AM,37.4,33.8,87,29.54,8.0,NW,15.0,20.7,0.01,,Overcast,310,2012-12-18 14:15:00
9:35 AM,35.6,33.8,93,29.55,7.0,WNW,15.0,-,0.03,,Overcast,300,2012-12-18 14:35:00
9:55 AM,35.6,33.8,93,29.57,7.0,WNW,15.0,20.7,0.04,,Overcast,290,2012-12-18 14:55:00
10:15 AM,35.6,33.8,93,29.58,8.0,WNW,12.7,19.6,N/A,,Overcast,300,2012-12-18 15:15:00
10:35 AM,35.6,32.0,87,29.59,7.0,WNW,15.0,19.6,N/A,,Overcast,300,2012-12-18 15:35:00
10:55 AM,35.6,32.0,87,29.59,4.0,WNW,10.4,-,0.01,,Overcast,300,2012-12-18 15:55:00
11:15 AM,35.6,32.0,87,29.59,8.0,WNW,12.7,-,N/A,,Overcast,300,2012-12-18 16:15:00
11:35 AM,35.6,32.0,87,29.60,3.0,WNW,11.5,17.3,N/A,,Overcast,300,2012-12-18 16:35:00
11:55 AM,35.6,32.0,87,29.60,5.0,WNW,11.5,-,N/A,,Overcast,300,2012-12-18 16:55:00
12:15 PM,35.6,32.0,87,29.60,5.0,WNW,12.7,-,N/A,,Overcast,300,2012-12-18 17:15:00
12:35 PM,33.8,30.2,87,29.61,3.0,West,12.7,-,N/A,,Overcast,280,2012-12-18 17:35:00
12:55 PM,33.8,30.2,87,29.61,7.0,West,15.0,19.6,N/A,,Overcast,280,2012-12-18 17:55:00
1:15 PM,33.8,30.2,87,29.62,3.0,West,15.0,-,N/A,,Overcast,270,2012-12-18 18:15:00
1:35 PM,33.8,30.2,87,29.62,3.0,West,16.1,21.9,N/A,,Overcast,280,2012-12-18 18:35:00
1:55 PM,33.8,30.2,87,29.63,8.0,WNW,15.0,20.7,N/A,,Overcast,290,2012-12-18 18:55:00
2:15 PM,33.8,30.2,87,29.63,10.0,WNW,11.5,-,N/A,,Overcast,290,2012-12-18 19:15:00
2:35 PM,35.6,32.0,87,29.64,10.0,West,12.7,18.4,N/A,,Overcast,280,2012-12-18 19:35:00
2:55 PM,33.8,30.2,87,29.64,4.0,West,12.7,-,N/A,,Overcast,280,2012-12-18 19:55:00
3:15 PM,33.8,32.0,93,29.65,7.0,West,10.4,-,N/A,,Overcast,270,2012-12-18 20:15:00
3:35 PM,33.8,32.0,93,29.66,10.0,West,12.7,18.4,N/A,,Overcast,270,2012-12-18 20:35:00
3:55 PM,33.8,30.2,87,29.67,10.0,West,15.0,20.7,N/A,,Overcast,280,2012-12-18 20:55:00
4:15 PM,33.8,30.2,87,29.68,10.0,West,12.7,19.6,N/A,,Overcast,270,2012-12-18 21:15:00
4:35 PM,33.8,30.2,87,29.68,10.0,West,15.0,18.4,N/A,,Overcast,260,2012-12-18 21:35:00
4:55 PM,33.8,28.4,81,29.69,10.0,West,9.2,19.6,N/A,,Overcast,270,2012-12-18 21:55:00
5:15 PM,33.8,28.4,81,29.69,10.0,West,12.7,16.1,N/A,,Overcast,260,2012-12-18 22:15:00
5:35 PM,33.8,28.4,81,29.69,10.0,West,10.4,17.3,N/A,,Overcast,260,2012-12-18 22:35:00
5:55 PM,33.8,28.4,81,29.70,10.0,West,10.4,-,N/A,,Overcast,260,2012-12-18 22:55:00
6:15 PM,33.8,28.4,81,29.71,10.0,West,10.4,-,N/A,,Overcast,260,2012-12-18 23:15:00
6:35 PM,33.8,28.4,81,29.72,10.0,West,11.5,-,N/A,,Overcast,260,2012-12-18 23:35:00
6:55 PM,33.8,28.4,81,29.72,10.0,West,11.5,-,N/A,,Overcast,270,2012-12-18 23:55:00
7:15 PM,33.8,28.4,81,29.73,10.0,West,10.4,-,N/A,,Overcast,260,2012-12-19 00:15:00
7:35 PM,33.8,28.4,81,29.73,10.0,West,11.5,-,N/A,,Overcast,260,2012-12-19 00:35:00
7:55 PM,33.8,28.4,81,29.74,10.0,West,10.4,-,N/A,,Overcast,260,2012-12-19 00:55:00
8:15 PM,33.8,28.4,81,29.74,10.0,West,12.7,-,N/A,,Overcast,260,2012-12-19 01:15:00
8:35 PM,33.8,28.4,81,29.74,10.0,WSW,10.4,-,N/A,,Overcast,250,2012-12-19 01:35:00
8:55 PM,32.0,28.4,87,29.74,10.0,WSW,9.2,-,N/A,,Overcast,250,2012-12-19 01:55:00
9:15 PM,32.0,28.4,87,29.74,10.0,West,5.8,-,N/A,,Overcast,260,2012-12-19 02:15:00
9:35 PM,32.0,28.4,87,29.74,10.0,WSW,6.9,-,N/A,,Overcast,240,2012-12-19 02:35:00
9:55 PM,32.0,28.4,87,29.74,10.0,WSW,8.1,-,N/A,,Overcast,240,2012-12-19 02:55:00
10:15 PM,32.0,28.4,87,29.75,10.0,WSW,12.7,-,N/A,,Overcast,250,2012-12-19 03:15:00
10:35 PM,32.0,28.4,87,29.75,10.0,WSW,10.4,-,N/A,,Overcast,240,2012-12-19 03:35:00
10:55 PM,32.0,26.6,80,29.75,10.0,WSW,9.2,-,N/A,,Overcast,250,2012-12-19 03:55:00
11:15 PM,33.8,28.4,81,29.76,10.0,West,11.5,-,N/A,,Overcast,260,2012-12-19 04:15:00
11:35 PM,32.0,28.4,87,29.76,10.0,WSW,10.4,-,N/A,,Overcast,250,2012-12-19 04:35:00
11:55 PM,32.0,28.4,87,29.75,10.0,WSW,8.1,-,N/A,,Overcast,240,2012-12-19 04:55:00